Regional Weather Roundup
Issued by NWS Sterling, VA

Home | Current Version | Previous Version | Text Only | Print | Product List | Glossary On
Versions: 1 2 3 4 5 6 7 8 9 10 11 12 13 14 15 16 17 18 19 20 21 22 23 24 25 26 27 28 29 30 31 32 33 34 35 36 37 38 39 40 41 42 43 44 45 46 47 48 49 50
000
ASUS41 KLWX 041010
RWRLWX

REGIONAL WEATHER ROUNDUP
NATIONAL WEATHER SERVICE BALTIMORE MD/WASHINGTON DC
600 AM EDT FRI SEP 04 2015

Note: "FAIR" indicates few or no clouds below 12,000 feet
with no significant weather and/or obstructions to visibility.
 TC=TEMPERATURE CELSIUS

 * =Non NWS site. Station does not report precipitation (e.g. rain,
    snow, etc.), thunder, or fog.

DCZ001-MDZ009-015-VAZ040>042-051-053>054-041100-
WASHINGTON METRO

CITY           SKY/WX    TMP DP  RH WIND       PRES   REMARKS
WASHINGTON NAT PTCLDY    75  69  81 N7        29.94R
DULLES         PTCLDY    73  67  81 NW3       29.95R
ANDREWS AFB    CLEAR     69  67  93 N2        29.93R
FT BELVOIR     CLEAR     70  69  95 NW1       29.93R
QUANTICO       CLEAR     73  68  84 NW5       29.93R
COLLEGE PARK*  CLEAR     70  70 100 CALM      29.93R
LEESBURG*      CLEAR     73  72  94 N6        29.96S
MANASSAS*      CLEAR     70  70 100 CALM      29.94R
GAITHERSBURG*  CLEAR     70  64  83 CALM      29.99R

$$

MDZ006>007-011-014-041100-
BALTIMORE METRO

CITY           SKY/WX    TMP DP  RH WIND       PRES   REMARKS
BWI AIRPORT    MOCLDY    73  68  84 CALM      29.93R
MD SCIENCE CTR   N/A     79  67  66 MISG      29.94R
MARTIN STATE   CLEAR     75  72  88 CALM      29.94
ANNAPOLIS      CLEAR     77  71  82 N5        29.92R
FORT MEADE*      N/A     66  64  94 CALM      29.95S

$$

MDZ012-015-019>023-041100-
MARYLAND EASTERN SHORE

CITY           SKY/WX    TMP DP  RH WIND       PRES   REMARKS
OCEAN CITY     CLEAR     70  68  93 CALM      29.91R
SALISBURY      CLEAR     70  68  93 CALM      29.92R FOG
BAY BRIDGE AP*   N/A     77  72  83 N3        29.92R
CAMBRIDGE*     MOCLDY    72  68  88 CALM      29.91R
EASTON*        CLEAR     73  73 100 CALM      29.95  FOG

$$

MDZ017>025-041100-
SOUTHERN MARYLAND

CITY           SKY/WX    TMP DP  RH WIND       PRES   REMARKS
PATUXENT RIVER PTCLDY    69  67  93 W3        29.91R
ST INIGOES     CLEAR     70  69  97 CALM      29.91R
LEONARDTOWN*   NOT AVBL

$$

MDZ003>005-041100-
NORTH CENTRAL MARYLAND

CITY           SKY/WX    TMP DP  RH WIND       PRES   REMARKS
FREDERICK*     PTCLDY    66  66 100 CALM      29.99R FOG
HAGERSTOWN APT CLEAR     70  66  87 CALM      29.99R FOG
WESTMINSTER*   CLEAR     72  66  83 N3        29.97R

$$

MDZ501>502-041100-
WESTERN MARYLAND

CITY           SKY/WX    TMP DP  RH WIND       PRES   REMARKS
OAKLAND*       PTCLDY    64  61  88 W3        30.12R
CUMBERLAND*    CLOUDY    68  68 100 CALM      30.05R

$$

VAZ025>031-041100-
SHENANDOAH VALLEY

CITY           SKY/WX    TMP DP  RH WIND       PRES   REMARKS
WINCHESTER*    CLEAR     68  68 100 CALM      29.99R FOG
FRONT ROYAL*   FAIR      68  68 100 CALM      29.98R
LURAY*         FOG       63  63 100 CALM      30.00R VSB 3/4
NEW MARKET*    FAIR      63  63 100 CALM      30.00R
STAUNTON*      FOG       64  63  96 CALM      30.04R VSB 1
WAYNESBORO*    FAIR      66  64  96 CALM      30.03R

$$

WVZ021-048>050-054>055-041100-
EASTERN WEST VIRGINIA PANHANDLE

CITY           SKY/WX    TMP DP  RH WIND       PRES   REMARKS
MARTINSBURG    CLEAR     65  64  97 CALM      29.98R FOG
PETERSBURG*    FOG       65  65 100 CALM      30.04R VSB 1/4

$$

VAZ036>039-050-041100-
CENTRAL FOOTHILLS

CITY           SKY/WX    TMP DP  RH WIND       PRES   REMARKS
CHARLOTTESVILL CLEAR     70  67  90 SW3       29.96R
CULPEPER*      CLEAR     68  67  99 CALM      29.96R FOG
ORANGE*        CLEAR     68  68 100 CALM      29.96S FOG
GORDONSVILLE*  FAIR      68  67  97 CALM      29.95R FOG
WARRENTON*       N/A     66  66 100 CALM      29.94R FOG

$$

VAZ055>057-041100-
NORTH AND CENTRAL PIEDMONT

CITY           SKY/WX    TMP DP  RH WIND       PRES   REMARKS
FREDERICKSBRG* CLEAR     70  70 100 CALM      29.92R
STAFFORD*      CLEAR     67  65  94 CALM      29.97S FOG

$$

NCZ024-NYZ072-PAZ021-071-VAZ022-071-041100-
OTHER REGIONAL OBSERVATIONS

CITY           SKY/WX    TMP DP  RH WIND       PRES   REMARKS
NEW YORK CITY  CLEAR     77  66  68 VRB7      29.98R
PHILADELPHIA   PTCLDY    77  68  73 E5        29.94R
PITTSBURGH     MOCLDY    69  65  86 CALM      30.04R
ROANOKE        CLEAR     67  65  93 W5        30.03S
RICHMOND       CLEAR     74  69  85 CALM      29.92S
RALEIGH        PTCLDY    71  68  90 CALM      29.95R FOG

$$

ANZ530>537-041100-
MARINE OBSERVATIONS

STATION/POSITION TIME  TEMP    WIND        PRES
                       AIR SEA DIR/SP/G
                 (UTC) (F)     (DEG/KT/KT) (MB)
THOMAS PT LIGHT  NOT AVBL
BALT KEY BRIDGE  0900   79     340/  5/  6 1012.8R
COVE POINT       0900   78     350/  3/  4 1013.2R
LEWISETTA        0900   77 82   CALM  /  2 1012.1R
SOLOMONS ISLAND  0900      82                N/A
PINEY POINT      0905          360/  4/  4   N/A

$$



USA.gov is the U.S. government's official web portal to all federal, state and local government web resources and services.